Flag for U.S.A. Weather past 2 weeks in Montpelier, Vermont, U.S.A.

Now
49 °F

Fog.


Feels Like: 49 °F
Forecast: 48 / 76 °F
Wind: No wind

Location: Knapp State Airport

Current Time: Jul 30, 2014 at 3:39:46 AM

Latest Report: Jul 30, 2014 at 2:51 AM


Visibility: 0 mi

Pressure: 30.04 "Hg

Humidity: 100%

Dew point: 49 °F

Location of MontpelierLocation

Historic Weather in Montpelier — Graph

°F

Montpelier temperature yesterday

Maximum temperature yesterday: 67 °F (at 3:51 PM)
Minimum temperature yesterday: 49 °F (at 11:51 PM)
Average temperature yesterday: 59 °F

Past Weeks' High & Low Weather Summary

 TemperatureHumidityPressure
High86 °F (Jul 23, 1:51 PM)100% (Jul 15, 2:51 AM)30.35 "Hg (Jul 15, 2:51 AM)
Low48 °F (Jul 18, 3:51 AM)39% (Jul 20, 3:51 PM)29.53 "Hg (Jul 28, 4:51 PM)
Average65 °F79%29.98 "Hg
* Reported Jul 15 1:03 AM — Jul 30 1:51 AM, Montpelier, Weather by CustomWeather, © 2014

Note: Actual official high and low records may vary slightly from our data, if they occured in-between our weather recording intervals... More about our weather records

Advertising

Montpelier weather history for previous 24 hours

 ConditionsComfort  
Time TempWeatherWind HumidityBarometerVisibility
1:51 AM
Jul 30
51 °FFog.No wind100%30.03 "Hg0 mi
12:51 AM51 °FFog.No wind100%30.03 "Hg0 mi
11:51 PM
Jul 29
49 °FClear.No wind97%30.02 "Hg10 mi
10:51 PM52 °FClear.No wind93%30.02 "Hg10 mi
9:51 PM53 °FClear.No wind96%30.02 "Hg10 mi
8:51 PM54 °FSunny.6 mph93%30.00 "Hg10 mi
7:51 PM59 °FSunny.No wind81%29.99 "Hg10 mi
6:51 PM64 °FSunny.3 mph61%29.97 "Hg10 mi
5:51 PM66 °FSunny.7 mph54%29.95 "Hg10 mi
4:51 PM67 °FPassing clouds.10 mph53%29.93 "Hg10 mi
3:51 PM67 °FBroken clouds.10 mph53%29.91 "Hg10 mi
2:51 PM66 °FPartly sunny.7 mph56%29.90 "Hg10 mi
1:51 PM64 °FPartly sunny.9 mph58%29.89 "Hg10 mi
12:51 PM65 °FPartly sunny.7 mph61%29.88 "Hg10 mi
11:51 AM63 °FBroken clouds.12 mph63%29.88 "Hg10 mi
9:51 AM60 °FSunny.9 mph72%29.85 "Hg10 mi
8:51 AM59 °FSunny.8 mph78%29.82 "Hg10 mi
7:51 AM57 °FSunny.8 mph81%29.80 "Hg10 mi
6:51 AM56 °FOvercast.9 mph87%29.79 "Hg10 mi
5:51 AM55 °FMostly cloudy.7 mph93%29.75 "Hg10 mi
4:51 AM55 °FOvercast.6 mph93%29.74 "Hg10 mi
3:51 AM55 °FFog.6 mph96%29.72 "Hg6 mi
3:02 AM55 °FMostly cloudy.12 mph96%29.70 "Hg10 mi
Weather by CustomWeather, © 2014

See weather overviewHow to use our weather pages